"Period start","avg(HW err(1)/warn(2) (#))","avg(Visibility (m))","avg(Weather code (#))","avg(Precip intensity (mm/h))","min(HW err(1)/warn(2) (#))","max(HW err(1)/warn(2) (#))","std(HW err(1)/warn(2) (#))","med(HW err(1)/warn(2) (#))","min(Visibility (m))","max(Visibility (m))","std(Visibility (m))","med(Visibility (m))","min(Weather code (#))","max(Weather code (#))","std(Weather code (#))","med(Weather code (#))","min(Precip intensity (mm/h))","max(Precip intensity (mm/h))","std(Precip intensity (mm/h))","med(Precip intensity (mm/h))"
2014-10-06 00:00:00,2,40559,0,0.00,2,2,0,2,34076,46115,3092,40838,0,0,0,0,0.00,0.00,0.00,0.00
2014-10-06 00:10:00,2,36985,0,0.00,2,2,0,2,32805,39945,2497,37334,0,0,0,0,0.00,0.00,0.00,0.00
2014-10-06 00:20:00,2,39952,0,0.00,2,2,0,2,32078,44848,4289,41517,0,0,0,0,0.00,0.00,0.00,0.00
2014-10-06 00:30:00,2,36766,0,0.00,2,2,0,2,31566,42512,3873,36264,0,0,0,0,0.00,0.00,0.00,0.00
2014-10-06 00:40:00,2,38096,0,0.00,2,2,0,2,31650,47906,4820,36550,0,0,0,0,0.00,0.00,0.00,0.00
2014-10-06 00:50:00,2,39620,0,0.00,2,2,0,2,33084,47512,4659,38682,0,0,0,0,0.00,0.00,0.00,0.00
2014-10-06 01:00:00,2,39369,0,0.00,2,2,0,2,33088,48396,5158,39142,0,0,0,0,0.00,0.00,0.00,0.00
2014-10-06 01:10:00,2,40418,0,0.00,2,2,0,2,33214,46324,4931,41352,0,0,0,0,0.00,0.00,0.00,0.00
2014-10-06 01:20:00,2,37471,0,0.00,2,2,0,2,29423,47350,4682,36255,0,0,0,0,0.00,0.00,0.00,0.00
2014-10-06 01:30:00,2,40374,0,0.00,2,2,0,2,29460,50000,6699,37718,0,0,0,0,0.00,0.00,0.00,0.00
2014-10-06 01:40:00,2,43773,0,0.00,2,2,0,2,36573,50000,4589,43795,0,0,0,0,0.00,0.00,0.00,0.00
2014-10-06 01:50:00,2,45441,0,0.00,2,2,0,2,39371,50000,3607,45924,0,0,0,0,0.00,0.00,0.00,0.00
2014-10-06 02:00:00,2,44959,0,0.00,2,2,0,2,38363,50000,3256,44552,0,0,0,0,0.00,0.00,0.00,0.00
2014-10-06 02:10:00,2,44049,0,0.00,2,2,0,2,32186,50000,5574,45334,0,0,0,0,0.00,0.00,0.00,0.00
2014-10-06 02:20:00,2,39552,0,0.00,2,2,0,2,32142,46621,3940,40066,0,0,0,0,0.00,0.00,0.00,0.00
2014-10-06 02:30:00,2,41506,0,0.00,2,2,0,2,28753,50000,6414,41540,0,0,0,0,0.00,0.00,0.00,0.00
2014-10-06 02:40:00,2,35403,0,0.00,2,2,0,2,28561,42100,4475,36401,0,0,0,0,0.00,0.00,0.00,0.00
2014-10-06 02:50:00,2,44167,0,0.00,2,2,0,2,36856,50000,4431,44270,0,0,0,0,0.00,0.00,0.00,0.00
2014-10-06 03:00:00,2,41246,0,0.00,2,2,0,2,33162,46244,4431,41745,0,0,0,0,0.00,0.00,0.00,0.00
2014-10-06 03:10:00,2,41462,0,0.00,2,2,0,2,36213,46222,3457,41700,0,0,0,0,0.00,0.00,0.00,0.00
2014-10-06 03:20:00,2,42154,0,0.00,2,2,0,2,37497,47421,2927,41586,0,0,0,0,0.00,0.00,0.00,0.00
2014-10-06 03:30:00,2,44550,0,0.00,2,2,0,2,39488,50000,3293,43540,0,0,0,0,0.00,0.00,0.00,0.00
2014-10-06 03:40:00,2,38774,0,0.00,2,2,0,2,33491,45288,3752,37774,0,0,0,0,0.00,0.00,0.00,0.00
2014-10-06 03:50:00,2,44124,0,0.00,2,2,0,2,34818,50000,4254,44146,0,0,0,0,0.00,0.00,0.00,0.00
2014-10-06 04:00:00,2,41550,0,0.00,2,2,0,2,35138,45374,2821,41868,0,0,0,0,0.00,0.00,0.00,0.00
2014-10-06 04:10:00,2,45838,0,0.00,2,2,0,2,38452,50000,3312,46351,0,0,0,0,0.00,0.00,0.00,0.00
2014-10-06 04:20:00,2,40867,0,0.00,2,2,0,2,34396,48934,5051,41416,0,0,0,0,0.00,0.00,0.00,0.00
2014-10-06 04:30:00,2,48110,0,0.00,2,2,0,2,45231,50000,1891,48622,0,0,0,0,0.00,0.00,0.00,0.00
2014-10-06 04:40:00,2,40581,0,0.00,2,2,0,2,32232,48650,5476,42540,0,0,0,0,0.00,0.00,0.00,0.00
2014-10-06 04:50:00,2,42462,0,0.00,2,2,0,2,36205,50000,5258,42815,0,0,0,0,0.00,0.00,0.00,0.00
2014-10-06 05:00:00,2,43024,0,0.00,2,2,0,2,36013,50000,3710,43062,0,0,0,0,0.00,0.00,0.00,0.00
2014-10-06 05:10:00,2,43689,0,0.00,2,2,0,2,39253,47840,2929,42978,0,0,0,0,0.00,0.00,0.00,0.00
2014-10-06 05:20:00,2,40259,4,0.00,2,2,0,2,26725,50000,8432,42786,0,40,12,0,0.00,0.00,0.00,0.00
2014-10-06 05:30:00,2,33107,64,0.01,2,2,0,2,24148,45476,6507,31786,40,77,16,71,0.00,0.05,0.02,0.00
2014-10-06 05:40:00,2,39789,73,0.00,2,2,0,2,31757,49340,6516,37312,71,77,3,71,0.00,0.00,0.00,0.00
2014-10-06 05:50:00,2,27801,74,0.00,2,2,0,2,22138,36048,4401,27302,71,77,3,74,0.00,0.00,0.00,0.00
2014-10-06 06:00:00,2,22222,71,0.03,2,2,0,2,15306,25942,3080,23402,71,71,0,71,0.00,0.30,0.09,0.00
2014-10-06 06:10:00,2,33907,73,0.01,2,2,0,2,28590,38305,3207,33608,71,77,3,71,0.00,0.05,0.02,0.00
2014-10-06 06:20:00,2,34266,37,0.00,2,2,0,2,27929,40475,4292,33898,0,77,37,36,0.00,0.00,0.00,0.00
2014-10-06 06:30:00,2,33618,50,0.01,2,2,0,2,24553,39380,4300,34254,0,71,33,71,0.00,0.05,0.02,0.00
2014-10-06 06:40:00,2,32073,0,0.00,2,2,0,2,26719,38930,3888,31227,0,0,0,0,0.00,0.00,0.00,0.00
2014-10-06 06:50:00,2,30253,0,0.00,2,2,0,2,24798,36246,3234,29966,0,0,0,0,0.00,0.00,0.00,0.00
2014-10-06 07:00:00,2,33137,0,0.00,2,2,0,2,29850,39767,2898,32302,0,0,0,0,0.00,0.00,0.00,0.00
2014-10-06 07:10:00,2,24129,0,0.00,2,2,0,2,21338,27764,2085,23464,0,0,0,0,0.00,0.00,0.00,0.00
2014-10-06 07:20:00,2,22534,53,0.00,2,2,0,2,19836,27369,1917,22306,0,77,24,56,0.00,0.00,0.00,0.00
2014-10-06 07:30:00,2,31801,60,0.00,2,2,0,2,22290,37712,5007,33792,0,77,30,74,0.00,0.00,0.00,0.00
2014-10-06 07:40:00,2,39418,0,0.00,2,2,0,2,32778,46401,4101,39226,0,0,0,0,0.00,0.00,0.00,0.00
2014-10-06 07:50:00,2,29632,0,0.00,2,2,0,2,21218,35190,4372,31176,0,0,0,0,0.00,0.00,0.00,0.00
2014-10-06 08:00:00,2,36172,0,0.00,2,2,0,2,29032,41698,3758,36846,0,0,0,0,0.00,0.00,0.00,0.00
2014-10-06 08:10:00,2,28816,0,0.00,2,2,0,2,23787,36991,3976,28270,0,0,0,0,0.00,0.00,0.00,0.00
2014-10-06 08:20:00,2,34263,0,0.00,2,2,0,2,27569,41302,4531,34838,0,0,0,0,0.00,0.00,0.00,0.00
2014-10-06 08:30:00,2,39846,0,0.00,2,2,0,2,32482,44602,3895,39774,0,0,0,0,0.00,0.00,0.00,0.00
2014-10-06 08:40:00,2,33407,0,0.00,2,2,0,2,29534,36605,1898,33624,0,0,0,0,0.00,0.00,0.00,0.00
2014-10-06 08:50:00,2,39186,0,0.00,2,2,0,2,31766,47129,5383,37718,0,0,0,0,0.00,0.00,0.00,0.00
2014-10-06 09:00:00,2,45265,0,0.00,2,2,0,2,32139,49465,4821,46658,0,0,0,0,0.00,0.00,0.00,0.00
2014-10-06 09:10:00,2,39182,0,0.00,2,2,0,2,33965,43505,2964,39223,0,0,0,0,0.00,0.00,0.00,0.00
2014-10-06 09:20:00,2,41923,0,0.00,2,2,0,2,33282,50000,4852,43414,0,0,0,0,0.00,0.00,0.00,0.00
2014-10-06 09:30:00,2,37386,0,0.00,2,2,0,2,29709,42594,3864,38395,0,0,0,0,0.00,0.00,0.00,0.00
2014-10-06 09:40:00,2,31153,0,0.00,2,2,0,2,27899,36598,3002,29888,0,0,0,0,0.00,0.00,0.00,0.00
2014-10-06 09:50:00,2,31527,0,0.00,2,2,0,2,26964,36322,2836,32114,0,0,0,0,0.00,0.00,0.00,0.00
2014-10-06 10:00:00,2,41606,0,0.00,2,2,0,2,39614,43289,1211,41458,0,0,0,0,0.00,0.00,0.00,0.00
2014-10-06 10:10:00,2,39837,0,0.00,2,2,0,2,36354,43283,2303,39586,0,0,0,0,0.00,0.00,0.00,0.00
2014-10-06 10:20:00,2,42720,0,0.00,2,2,0,2,35657,47294,3739,44008,0,0,0,0,0.00,0.00,0.00,0.00
2014-10-06 10:30:00,2,42700,0,0.00,2,2,0,2,35571,48068,4203,43375,0,0,0,0,0.00,0.00,0.00,0.00
2014-10-06 10:40:00,2,39431,0,0.00,2,2,0,2,31241,46502,5241,39508,0,0,0,0,0.00,0.00,0.00,0.00
2014-10-06 10:50:00,2,45806,0,0.00,2,2,0,2,41765,47658,2030,46686,0,0,0,0,0.00,0.00,0.00,0.00
2014-10-06 11:00:00,2,47460,0,0.00,2,2,0,2,40489,50000,3375,49463,0,0,0,0,0.00,0.00,0.00,0.00
2014-10-06 11:10:00,2,49663,0,0.00,2,2,0,2,48095,50000,630,50000,0,0,0,0,0.00,0.00,0.00,0.00
2014-10-06 11:20:00,2,49326,0,0.00,2,2,0,2,45949,50000,1277,50000,0,0,0,0,0.00,0.00,0.00,0.00
2014-10-06 11:30:00,2,45144,0,0.00,2,2,0,2,39369,48814,3044,45941,0,0,0,0,0.00,0.00,0.00,0.00
2014-10-06 11:40:00,2,43568,0,0.00,2,2,0,2,40059,50000,2656,43201,0,0,0,0,0.00,0.00,0.00,0.00
2014-10-06 11:50:00,2,47227,0,0.00,2,2,0,2,42197,50000,2556,46915,0,0,0,0,0.00,0.00,0.00,0.00
2014-10-06 12:00:00,2,44639,0,0.00,2,2,0,2,38695,50000,3314,44102,0,0,0,0,0.00,0.00,0.00,0.00
2014-10-06 12:10:00,2,41766,0,0.00,2,2,0,2,37432,45113,2177,41586,0,0,0,0,0.00,0.00,0.00,0.00
2014-10-06 12:20:00,2,43607,0,0.00,2,2,0,2,38923,50000,3517,42128,0,0,0,0,0.00,0.00,0.00,0.00
2014-10-06 12:30:00,2,44196,0,0.00,2,2,0,2,39537,46030,1761,44541,0,0,0,0,0.00,0.00,0.00,0.00
2014-10-06 12:40:00,2,46130,0,0.00,2,2,0,2,37374,50000,4732,48674,0,0,0,0,0.00,0.00,0.00,0.00
2014-10-06 12:50:00,2,45572,0,0.00,2,2,0,2,36283,50000,4386,46862,0,0,0,0,0.00,0.00,0.00,0.00
2014-10-06 13:00:00,2,37694,0,0.00,2,2,0,2,34071,41638,2142,37336,0,0,0,0,0.00,0.00,0.00,0.00
2014-10-06 13:10:00,2,42640,0,0.00,2,2,0,2,32969,48968,4318,43236,0,0,0,0,0.00,0.00,0.00,0.00
2014-10-06 13:20:00,2,33403,0,0.00,2,2,0,2,28287,40880,3567,32432,0,0,0,0,0.00,0.00,0.00,0.00
2014-10-06 13:30:00,2,32305,0,0.00,2,2,0,2,27063,35579,2613,32966,0,0,0,0,0.00,0.00,0.00,0.00
2014-10-06 13:40:00,2,29822,0,0.00,2,2,0,2,25689,34561,3266,29581,0,0,0,0,0.00,0.00,0.00,0.00
2014-10-06 13:50:00,2,26329,0,0.00,2,2,0,2,22194,32268,3143,26252,0,0,0,0,0.00,0.00,0.00,0.00
2014-10-06 14:00:00,2,27842,0,0.00,2,2,0,2,24916,29854,1615,28232,0,0,0,0,0.00,0.00,0.00,0.00
2014-10-06 14:10:00,2,26352,0,0.00,2,2,0,2,23004,30170,1953,25725,0,0,0,0,0.00,0.00,0.00,0.00
2014-10-06 14:20:00,2,27315,0,0.00,2,2,0,2,23861,29490,1887,27566,0,0,0,0,0.00,0.00,0.00,0.00
2014-10-06 14:30:00,2,24681,0,0.00,2,2,0,2,21768,29476,2145,24222,0,0,0,0,0.00,0.00,0.00,0.00
2014-10-06 14:40:00,2,25023,0,0.00,2,2,0,2,22694,27274,1541,24826,0,0,0,0,0.00,0.00,0.00,0.00
2014-10-06 14:50:00,2,13732,44,0.17,2,2,0,2,7521,19657,3792,12315,0,71,31,56,0.00,0.60,0.19,0.10
2014-10-06 15:00:00,2,8373,71,0.53,2,2,0,2,7798,9418,466,8305,71,71,0,71,0.15,1.00,0.26,0.50
2014-10-06 15:10:00,2,7335,71,0.55,2,2,0,2,5602,9952,1510,6812,71,71,0,71,0.20,0.95,0.26,0.60
2014-10-06 15:20:00,2,9764,71,0.14,2,2,0,2,8844,11208,814,9534,71,71,0,71,0.05,0.25,0.06,0.15
2014-10-06 15:30:00,2,10361,71,0.08,2,2,0,2,8749,12723,1163,10116,71,71,0,71,0.00,0.25,0.06,0.05
2014-10-06 15:40:00,2,18263,75,0.01,2,2,0,2,12731,22556,3190,18460,71,77,3,77,0.00,0.05,0.02,0.00
2014-10-06 15:50:00,2,26845,23,0.00,2,2,0,2,24293,28961,1505,26788,0,77,35,0,0.00,0.00,0.00,0.00
2014-10-06 16:00:00,2,29410,0,0.00,2,2,0,2,26551,34071,1970,28966,0,0,0,0,0.00,0.00,0.00,0.00
2014-10-06 16:10:00,2,24654,0,0.00,2,2,0,2,22863,27599,1228,24596,0,0,0,0,0.00,0.00,0.00,0.00
2014-10-06 16:20:00,2,24926,0,0.00,2,2,0,2,22081,27977,1836,24754,0,0,0,0,0.00,0.00,0.00,0.00
2014-10-06 16:30:00,2,22721,0,0.00,2,2,0,2,20669,25812,1716,21975,0,0,0,0,0.00,0.00,0.00,0.00
2014-10-06 16:40:00,2,25098,0,0.00,2,2,0,2,20955,28255,2434,24694,0,0,0,0,0.00,0.00,0.00,0.00
2014-10-06 16:50:00,2,28593,0,0.00,2,2,0,2,23855,31254,2012,29032,0,0,0,0,0.00,0.00,0.00,0.00
2014-10-06 17:00:00,2,28374,0,0.00,2,2,0,2,25933,31809,1595,28139,0,0,0,0,0.00,0.00,0.00,0.00
2014-10-06 17:10:00,2,28764,0,0.00,2,2,0,2,24261,37884,4258,26482,0,0,0,0,0.00,0.00,0.00,0.00
2014-10-06 17:20:00,2,28072,0,0.00,2,2,0,2,23582,38795,5070,25356,0,0,0,0,0.00,0.00,0.00,0.00
2014-10-06 17:30:00,2,32026,0,0.00,2,2,0,2,27648,37975,2716,31512,0,0,0,0,0.00,0.00,0.00,0.00
2014-10-06 17:40:00,2,26286,0,0.00,2,2,0,2,22916,32255,3008,25167,0,0,0,0,0.00,0.00,0.00,0.00
2014-10-06 17:50:00,2,26698,0,0.00,2,2,0,2,23173,33226,2983,25873,0,0,0,0,0.00,0.00,0.00,0.00
2014-10-06 18:00:00,2,29253,0,0.00,2,2,0,2,23845,35432,3528,30536,0,0,0,0,0.00,0.00,0.00,0.00
2014-10-06 18:10:00,2,29840,0,0.00,2,2,0,2,26324,34045,2244,29372,0,0,0,0,0.00,0.00,0.00,0.00
2014-10-06 18:20:00,2,30770,0,0.00,2,2,0,2,26789,33725,2013,30436,0,0,0,0,0.00,0.00,0.00,0.00
2014-10-06 18:30:00,2,33945,0,0.00,2,2,0,2,28052,37879,2792,34114,0,0,0,0,0.00,0.00,0.00,0.00
2014-10-06 18:40:00,2,29892,0,0.00,2,2,0,2,26280,34612,2673,29736,0,0,0,0,0.00,0.00,0.00,0.00
2014-10-06 18:50:00,2,32393,0,0.00,2,2,0,2,26506,41521,4245,31836,0,0,0,0,0.00,0.00,0.00,0.00
2014-10-06 19:00:00,2,30037,0,0.00,2,2,0,2,25906,35085,2672,30561,0,0,0,0,0.00,0.00,0.00,0.00
2014-10-06 19:10:00,2,28573,0,0.00,2,2,0,2,22618,34851,3142,28648,0,0,0,0,0.00,0.00,0.00,0.00
2014-10-06 19:20:00,2,33773,0,0.00,2,2,0,2,29849,38150,2731,34232,0,0,0,0,0.00,0.00,0.00,0.00
2014-10-06 19:30:00,2,33593,0,0.00,2,2,0,2,29839,40057,3520,32339,0,0,0,0,0.00,0.00,0.00,0.00
2014-10-06 19:40:00,2,30329,0,0.00,2,2,0,2,26229,34814,2418,30837,0,0,0,0,0.00,0.00,0.00,0.00
2014-10-06 19:50:00,2,27780,0,0.00,2,2,0,2,23277,31114,2531,27651,0,0,0,0,0.00,0.00,0.00,0.00
2014-10-06 20:00:00,2,29177,0,0.00,2,2,0,2,25271,34546,3049,29490,0,0,0,0,0.00,0.00,0.00,0.00
2014-10-06 20:10:00,2,32567,0,0.00,2,2,0,2,27338,38881,2979,32796,0,0,0,0,0.00,0.00,0.00,0.00
2014-10-06 20:20:00,2,33059,0,0.00,2,2,0,2,27557,36580,2757,33608,0,0,0,0,0.00,0.00,0.00,0.00
2014-10-06 20:30:00,2,33314,0,0.00,2,2,0,2,28387,36510,2449,33166,0,0,0,0,0.00,0.00,0.00,0.00
2014-10-06 20:40:00,2,35139,0,0.00,2,2,0,2,32940,39463,1844,35122,0,0,0,0,0.00,0.00,0.00,0.00
2014-10-06 20:50:00,2,34559,0,0.00,2,2,0,2,29509,40078,3501,33760,0,0,0,0,0.00,0.00,0.00,0.00
2014-10-06 21:00:00,2,29959,0,0.00,2,2,0,2,23163,38445,4820,28400,0,0,0,0,0.00,0.00,0.00,0.00
2014-10-06 21:10:00,2,29488,0,0.00,2,2,0,2,25168,33979,2741,28916,0,0,0,0,0.00,0.00,0.00,0.00
2014-10-06 21:20:00,2,26713,0,0.00,2,2,0,2,24601,30462,1898,25786,0,0,0,0,0.00,0.00,0.00,0.00
2014-10-06 21:30:00,2,30596,0,0.00,2,2,0,2,26091,39136,3488,30667,0,0,0,0,0.00,0.00,0.00,0.00
2014-10-06 21:40:00,2,29426,0,0.00,2,2,0,2,23849,35820,3444,29474,0,0,0,0,0.00,0.00,0.00,0.00
2014-10-06 21:50:00,2,26229,0,0.00,2,2,0,2,23476,29443,1944,25800,0,0,0,0,0.00,0.00,0.00,0.00
2014-10-06 22:00:00,2,23798,0,0.00,2,2,0,2,21183,27523,2180,23510,0,0,0,0,0.00,0.00,0.00,0.00
2014-10-06 22:10:00,2,23105,0,0.00,2,2,0,2,19798,25398,1906,24136,0,0,0,0,0.00,0.00,0.00,0.00
2014-10-06 22:20:00,2,25528,0,0.00,2,2,0,2,22044,30106,2444,24692,0,0,0,0,0.00,0.00,0.00,0.00
2014-10-06 22:30:00,2,22668,0,0.00,2,2,0,2,20475,24552,1049,22752,0,0,0,0,0.00,0.00,0.00,0.00
2014-10-06 22:40:00,2,24802,0,0.00,2,2,0,2,22155,29077,2431,24374,0,0,0,0,0.00,0.00,0.00,0.00
2014-10-06 22:50:00,2,24806,0,0.00,2,2,0,2,19350,29599,2968,25819,0,0,0,0,0.00,0.00,0.00,0.00
2014-10-06 23:00:00,2,26776,0,0.00,2,2,0,2,23066,31568,2887,26832,0,0,0,0,0.00,0.00,0.00,0.00
2014-10-06 23:10:00,2,26848,0,0.00,2,2,0,2,22556,32531,3397,27676,0,0,0,0,0.00,0.00,0.00,0.00
2014-10-06 23:20:00,2,26782,0,0.00,2,2,0,2,20598,31464,2653,27038,0,0,0,0,0.00,0.00,0.00,0.00
2014-10-06 23:30:00,2,25189,0,0.00,2,2,0,2,22828,27300,1610,24990,0,0,0,0,0.00,0.00,0.00,0.00
2014-10-06 23:40:00,2,24464,0,0.00,2,2,0,2,19842,28822,2626,23896,0,0,0,0,0.00,0.00,0.00,0.00
2014-10-06 23:50:00,2,22028,8,0.00,2,2,0,2,17903,26499,2730,21764,0,40,16,0,0.00,0.00,0.00,0.00
